Weather in Bodmin

United Kingdom     50°28′02″N   4°43′24″W
temp.,
°C
wind,
m/s
gust,
m/s
humid.,
%
clouds,
%
prec.,
mm/h
press.,
hPa
HPBL,
m
24 january, mon
mon2400:00+4ese499147 0.0 1031323
03:00+5ese588781 0.0 1030444
06:00+5ese478669 0.0 1030355
09:00+4ese478858 0.0 1031387
12:00+7ese577993 0.0 1031675
15:00+7ese467890 0.0 1031687
18:00+6ese467986 0.0 1032322
21:00+4e368851 0.0 1033172
25 january, tue
tue2500:00+4e248655 0.0 1034111
03:00+4e228741 0.0 103351
06:00+3e229014 0.0 103331
09:00+3e119014 0.0 103522
12:00+7ese117846 0.0 1035551
15:00+7n117589 0.0 1034613
18:00+4n238919 0.0 103536
21:00+3ne11895 0.0 103616
26 january, wed
wed2600:00+2ne11910 0.0 103610
03:00+2nne11915 0.0 103611
06:00+1nne11913 0.0 103610
09:00+3e11922 0.0 103611
12:00+7wnw12794 0.0 1036395
15:00+8wnw34780 0.0 1035501
18:00+4wnw22905 0.0 103515
21:00+3w22919 0.0 103513
27 january, thu
thu2700:00+4w2392100 0.0 103433
03:00+7wnw6981100 0.0 1033455
06:00+6wnw51090100 0.0 1032291
09:00+8wnw51193100 0.0 1033449
12:00+9wnw61096100 0.1 1033580
15:00+9n599322 0.0 1034476
18:00+5n36910 0.0 103695
21:00+4nne22895 0.0 103822
28 january, fri
fri2800:00+4nne2287100 0.0 103914
03:00+4nne22877 0.0 103911
06:00+4nnw1290100 0.0 104011
09:00+5nnw1190100 0.0 104110
12:00+9wnw2477100 0.0 1041360
15:00+9w3678100 0.0 1040460
18:00+5w328993 0.0 104033
21:00+5w3391100 0.0 104040